UAL416 KDCA-KLGA

Flight info

Callsign UAL416
Flight time 0h 46m
Altitude 27000
Route DOCTR5 AGARD SPEAK PROUD2
Aircraft B738/M-SDE2E3FGHIRWXY/LB1

Departure

Time 2026-05-06 04:05
Airport Ronald Reagan Washington National Airport (KDCA)

Arrival

Time 2026-05-06 04:52
Airport LaGuardia Airport (KLGA)
Time Latitude Longitude Altitude Speed Heading
2026-05-06 03:48 38.85147 -77.04096 23 ft 0 kts 320°
2026-05-06 03:57 38.85132 -77.04079 26 ft 4 kts 310°
2026-05-06 03:57 38.85117 -77.04051 27 ft 4 kts 293°
2026-05-06 03:57 38.85109 -77.04018 23 ft 4 kts 280°
2026-05-06 03:58 38.85104 -77.03984 28 ft 4 kts 293°
2026-05-06 03:58 38.85096 -77.03969 23 ft 0 kts 356°
2026-05-06 04:01 38.85132 -77.03973 24 ft 11 kts 355°
2026-05-06 04:01 38.85207 -77.03983 23 ft 11 kts 354°
2026-05-06 04:01 38.85282 -77.03991 24 ft 11 kts 355°
2026-05-06 04:01 38.85331 -77.03956 24 ft 9 kts 99°
2026-05-06 04:02 38.85334 -77.03936 23 ft 3 kts 47°
2026-05-06 04:02 38.85373 -77.03933 25 ft 6 kts 346°
2026-05-06 04:02 38.85423 -77.03945 25 ft 10 kts 352°
2026-05-06 04:02 38.85507 -77.03954 24 ft 11 kts 355°
2026-05-06 04:03 38.85575 -77.03961 24 ft 6 kts 355°
2026-05-06 04:03 38.85587 -77.03962 27 ft 0 kts 355°
2026-05-06 04:03 38.85589 -77.03963 24 ft 3 kts 355°
2026-05-06 04:03 38.85643 -77.03968 28 ft 10 kts 356°
2026-05-06 04:04 38.85730 -77.03978 26 ft 15 kts 354°
2026-05-06 04:04 38.85849 -77.03990 26 ft 20 kts 357°
2026-05-06 04:04 38.85995 -77.03962 25 ft 18 kts 15°
2026-05-06 04:04 38.86075 -77.03923 23 ft 10 kts 43°
2026-05-06 04:05 38.86056 -77.03869 22 ft 9 kts 163°
2026-05-06 04:05 38.85745 -77.03836 26 ft 89 kts 175°
2026-05-06 04:05 38.84856 -77.03747 48 ft 163 kts 177°
2026-05-06 04:05 38.83702 -77.03615 1069 ft 157 kts 176°
2026-05-06 04:06 38.82547 -77.03427 1883 ft 183 kts 178°
2026-05-06 04:06 38.81189 -77.03139 2138 ft 206 kts 177°
2026-05-06 04:06 38.79761 -77.02824 2591 ft 217 kts 176°
2026-05-06 04:06 38.78244 -77.02492 3218 ft 225 kts 176°
2026-05-06 04:07 38.76709 -77.02046 4054 ft 227 kts 166°
2026-05-06 04:07 38.75355 -77.00951 4909 ft 238 kts 138°
2026-05-06 04:07 38.74306 -76.99194 5391 ft 261 kts 131°
2026-05-06 04:07 38.73367 -76.97079 5795 ft 288 kts 115°
2026-05-06 04:08 38.73142 -76.94511 6755 ft 294 kts 94°
2026-05-06 04:08 38.73516 -76.91857 7329 ft 314 kts 70°
2026-05-06 04:08 38.74781 -76.89590 8190 ft 315 kts 40°
2026-05-06 04:08 38.76652 -76.88228 9092 ft 309 kts 13°
2026-05-06 04:09 38.78729 -76.87476 9951 ft 311 kts
2026-05-06 04:09 38.80847 -76.86721 10537 ft 327 kts 15°
2026-05-06 04:09 38.83023 -76.85520 10710 ft 355 kts 23°
2026-05-06 04:09 38.85231 -76.83917 11160 ft 372 kts 33°
2026-05-06 04:10 38.87007 -76.81458 11864 ft 383 kts 57°
2026-05-06 04:10 38.88238 -76.78413 12691 ft 386 kts 64°
2026-05-06 04:10 38.89382 -76.75257 13451 ft 393 kts 65°
2026-05-06 04:10 38.90531 -76.72051 14176 ft 398 kts 64°
2026-05-06 04:11 38.91699 -76.68846 14979 ft 399 kts 64°
2026-05-06 04:11 38.92908 -76.65594 15614 ft 407 kts 64°
2026-05-06 04:11 38.94145 -76.62292 16583 ft 411 kts 64°
2026-05-06 04:11 38.95319 -76.59023 17628 ft 400 kts 65°
2026-05-06 04:12 38.96416 -76.55670 18086 ft 415 kts 66°
2026-05-06 04:12 38.97515 -76.52181 18509 ft 427 kts 67°
2026-05-06 04:12 38.98648 -76.48622 19146 ft 430 kts 66°
2026-05-06 04:12 38.99794 -76.45075 19894 ft 431 kts 66°
2026-05-06 04:13 39.00924 -76.41501 20620 ft 433 kts 70°
2026-05-06 04:13 39.01568 -76.37697 21249 ft 438 kts 82°
2026-05-06 04:13 39.01921 -76.33784 21898 ft 442 kts 84°
2026-05-06 04:13 39.02234 -76.29897 22504 ft 445 kts 84°
2026-05-06 04:14 39.02569 -76.25925 23112 ft 449 kts 83°
2026-05-06 04:14 39.02940 -76.21869 23687 ft 452 kts 83°
2026-05-06 04:14 39.03324 -76.17894 24169 ft 455 kts 82°
2026-05-06 04:14 39.03727 -76.13839 24642 ft 459 kts 82°
2026-05-06 04:15 39.04131 -76.09754 25129 ft 462 kts 82°
2026-05-06 04:15 39.04719 -76.05685 25551 ft 464 kts 69°
2026-05-06 04:15 39.05960 -76.01859 26020 ft 465 kts 63°
2026-05-06 04:15 39.07311 -75.98068 26490 ft 468 kts 63°
2026-05-06 04:16 39.08678 -75.94252 26894 ft 471 kts 63°
2026-05-06 04:16 39.10045 -75.90380 26940 ft 478 kts 64°
2026-05-06 04:16 39.11405 -75.86455 26950 ft 481 kts 64°
2026-05-06 04:16 39.12750 -75.82517 26940 ft 479 kts 64°
2026-05-06 04:17 39.14076 -75.78596 26936 ft 478 kts 64°
2026-05-06 04:17 39.15400 -75.74672 26952 ft 477 kts 65°
2026-05-06 04:17 39.16721 -75.70752 26946 ft 477 kts 65°
2026-05-06 04:17 39.18043 -75.66828 26934 ft 477 kts 65°
2026-05-06 04:18 39.19364 -75.62908 26944 ft 477 kts 65°
2026-05-06 04:18 39.20684 -75.58987 26938 ft 477 kts 65°
2026-05-06 04:18 39.22009 -75.55064 26932 ft 477 kts 63°
2026-05-06 04:18 39.23749 -75.51461 26929 ft 471 kts 46°
2026-05-06 04:19 39.26170 -75.48679 26950 ft 465 kts 31°
2026-05-06 04:19 39.28834 -75.46357 26945 ft 459 kts 30°
2026-05-06 04:19 39.31453 -75.44118 26916 ft 443 kts 30°
2026-05-06 04:19 39.33991 -75.41934 26626 ft 434 kts 30°
2026-05-06 04:20 39.36492 -75.39758 25861 ft 436 kts 31°
2026-05-06 04:20 39.39025 -75.37530 24956 ft 443 kts 31°
2026-05-06 04:20 39.41568 -75.35271 24152 ft 446 kts 31°
2026-05-06 04:20 39.44126 -75.32990 23475 ft 445 kts 31°
2026-05-06 04:21 39.46664 -75.30721 22744 ft 442 kts 32°
2026-05-06 04:21 39.49148 -75.28503 22206 ft 436 kts 31°
2026-05-06 04:21 39.51625 -75.26278 21657 ft 432 kts 32°
2026-05-06 04:21 39.54053 -75.24026 21197 ft 425 kts 33°
2026-05-06 04:22 39.56430 -75.21786 20715 ft 421 kts 33°
2026-05-06 04:22 39.58789 -75.19557 20256 ft 419 kts 33°
2026-05-06 04:22 39.61139 -75.17342 19788 ft 415 kts 33°
2026-05-06 04:23 39.65787 -75.12974 18880 ft 410 kts 33°
2026-05-06 04:23 39.68088 -75.10815 18429 ft 407 kts 32°
2026-05-06 04:23 39.70417 -75.08745 17945 ft 404 kts 30°
2026-05-06 04:23 39.72762 -75.06753 17455 ft 403 kts 30°
2026-05-06 04:24 39.75112 -75.04771 16981 ft 404 kts 30°
2026-05-06 04:24 39.77465 -75.02774 16519 ft 402 kts 30°
2026-05-06 04:24 39.79787 -75.00782 16081 ft 399 kts 30°
2026-05-06 04:24 39.82085 -74.98800 15703 ft 394 kts 30°
2026-05-06 04:25 39.84362 -74.96832 15272 ft 392 kts 30°
2026-05-06 04:25 39.86611 -74.94850 14843 ft 390 kts 31°
2026-05-06 04:25 39.88829 -74.92833 14413 ft 389 kts 32°
2026-05-06 04:25 39.91040 -74.90815 13988 ft 387 kts 32°
2026-05-06 04:26 39.93164 -74.88667 13539 ft 389 kts 41°
2026-05-06 04:26 39.95001 -74.86078 13078 ft 389 kts 47°
2026-05-06 04:26 39.96765 -74.83406 12622 ft 387 kts 47°
2026-05-06 04:26 39.98526 -74.80767 12175 ft 385 kts 46°
2026-05-06 04:27 40.00306 -74.78177 11746 ft 383 kts 46°
2026-05-06 04:27 40.02090 -74.75619 11317 ft 378 kts 46°
2026-05-06 04:27 40.03854 -74.73097 10925 ft 372 kts 46°
2026-05-06 04:27 40.05575 -74.70632 10640 ft 364 kts 46°
2026-05-06 04:28 40.07259 -74.68214 10363 ft 356 kts 46°
2026-05-06 04:28 40.08909 -74.65841 10076 ft 349 kts 46°
2026-05-06 04:28 40.10514 -74.63531 9994 ft 336 kts 46°
2026-05-06 04:28 40.12052 -74.61315 9981 ft 322 kts 46°
2026-05-06 04:29 40.13523 -74.59196 9956 ft 307 kts 46°
2026-05-06 04:29 40.14951 -74.57138 9537 ft 304 kts 46°
2026-05-06 04:29 40.16349 -74.55123 9322 ft 296 kts 46°
2026-05-06 04:29 40.17707 -74.53164 9161 ft 294 kts 46°
2026-05-06 04:30 40.19083 -74.51179 9028 ft 296 kts 46°
2026-05-06 04:30 40.20493 -74.49155 8897 ft 299 kts 44°
2026-05-06 04:30 40.21958 -74.47259 8742 ft 300 kts 41°
2026-05-06 04:30 40.23493 -74.45358 8607 ft 301 kts 41°
2026-05-06 04:31 40.24992 -74.43496 8462 ft 302 kts 41°
2026-05-06 04:31 40.26498 -74.41609 8319 ft 301 kts 41°
2026-05-06 04:31 40.28005 -74.39708 8166 ft 297 kts 41°
2026-05-06 04:31 40.29477 -74.37846 8037 ft 293 kts 41°
2026-05-06 04:32 40.30942 -74.35993 7913 ft 293 kts 41°
2026-05-06 04:32 40.32408 -74.34137 7757 ft 293 kts 41°
2026-05-06 04:32 40.32873 -74.33549 7706 ft 293 kts 41°
2026-05-06 04:33 40.34298 -74.31745 7585 ft 293 kts 41°
2026-05-06 04:33 40.35762 -74.29889 7429 ft 293 kts 41°
2026-05-06 04:33 40.37224 -74.28036 7308 ft 293 kts 41°
2026-05-06 04:33 40.38689 -74.26176 7170 ft 293 kts 41°
2026-05-06 04:34 40.40150 -74.24320 7018 ft 292 kts 41°
2026-05-06 04:34 40.41612 -74.22462 6876 ft 292 kts 41°
2026-05-06 04:34 40.43068 -74.20609 6812 ft 291 kts 41°
2026-05-06 04:34 40.44506 -74.18781 6687 ft 284 kts 44°
2026-05-06 04:35 40.45911 -74.16991 6459 ft 282 kts 41°
2026-05-06 04:35 40.47326 -74.15190 6347 ft 284 kts 41°
2026-05-06 04:35 40.48760 -74.13385 6208 ft 286 kts 37°
2026-05-06 04:35 40.50372 -74.11870 6056 ft 285 kts 28°
2026-05-06 04:36 40.52049 -74.10475 5941 ft 286 kts 28°
2026-05-06 04:36 40.53737 -74.09098 5782 ft 284 kts 26°
2026-05-06 04:36 40.55455 -74.07844 5603 ft 281 kts 22°
2026-05-06 04:36 40.57197 -74.06685 5427 ft 280 kts 22°
2026-05-06 04:37 40.58932 -74.05551 5308 ft 277 kts 21°
2026-05-06 04:37 40.60643 -74.04423 5204 ft 275 kts 22°
2026-05-06 04:37 40.62346 -74.03241 5116 ft 277 kts 23°
2026-05-06 04:37 40.64055 -74.02044 5017 ft 279 kts 23°
2026-05-06 04:38 40.65772 -74.00836 4940 ft 281 kts 23°
2026-05-06 04:38 40.67502 -73.99619 4840 ft 281 kts 23°
2026-05-06 04:38 40.69208 -73.98411 4730 ft 277 kts 23°
2026-05-06 04:38 40.70900 -73.97210 4614 ft 276 kts 23°
2026-05-06 04:39 40.72571 -73.96019 4513 ft 269 kts 23°
2026-05-06 04:39 40.74193 -73.94851 4406 ft 264 kts 24°
2026-05-06 04:39 40.75800 -73.93694 4324 ft 263 kts 24°
2026-05-06 04:39 40.77411 -73.92622 4244 ft 256 kts 24°
2026-05-06 04:40 40.79010 -73.91674 4088 ft 248 kts 22°
2026-05-06 04:40 40.80571 -73.90663 3945 ft 255 kts 22°
2026-05-06 04:40 40.82187 -73.89538 3889 ft 268 kts 23°
2026-05-06 04:40 40.83825 -73.88385 3845 ft 262 kts 23°
2026-05-06 04:41 40.85388 -73.87263 3749 ft 248 kts 23°
2026-05-06 04:41 40.86382 -73.86539 3590 ft 245 kts 23°
2026-05-06 04:41 40.87895 -73.85503 3211 ft 247 kts 18°
2026-05-06 04:41 40.89465 -73.84610 3069 ft 243 kts 16°
2026-05-06 04:42 40.91000 -73.83631 3042 ft 247 kts 22°
2026-05-06 04:42 40.92528 -73.82522 3005 ft 246 kts 23°
2026-05-06 04:42 40.94017 -73.81432 3009 ft 245 kts 23°
2026-05-06 04:42 40.95507 -73.80323 2991 ft 247 kts 23°
2026-05-06 04:43 40.97003 -73.79209 3005 ft 246 kts 24°
2026-05-06 04:43 40.98497 -73.78104 3001 ft 245 kts 23°
2026-05-06 04:43 40.99971 -73.77008 2988 ft 239 kts 23°
2026-05-06 04:43 41.01378 -73.75959 2882 ft 229 kts 23°
2026-05-06 04:44 41.02661 -73.74719 2669 ft 231 kts 50°
2026-05-06 04:44 41.03124 -73.72755 2591 ft 223 kts 100°
2026-05-06 04:44 41.02518 -73.71003 2549 ft 203 kts 148°
2026-05-06 04:44 41.01311 -73.70335 2559 ft 185 kts 179°
2026-05-06 04:45 41.00052 -73.69742 2554 ft 195 kts 166°
2026-05-06 04:45 40.98797 -73.69432 2529 ft 174 kts 203°
2026-05-06 04:45 40.97899 -73.70307 2554 ft 160 kts 237°
2026-05-06 04:45 40.97110 -73.71379 2550 ft 166 kts 221°
2026-05-06 04:46 40.96175 -73.72293 2553 ft 168 kts 224°
2026-05-06 04:46 40.95232 -73.73207 2560 ft 168 kts 220°
2026-05-06 04:46 40.94269 -73.74057 2542 ft 160 kts 219°
2026-05-06 04:46 40.93382 -73.74802 2541 ft 144 kts 219°
2026-05-06 04:47 40.92557 -73.75490 2533 ft 138 kts 220°
2026-05-06 04:47 40.91736 -73.76172 2548 ft 140 kts 220°
2026-05-06 04:47 40.90899 -73.76866 2551 ft 143 kts 220°
2026-05-06 04:47 40.90049 -73.77569 2542 ft 145 kts 219°
2026-05-06 04:48 40.89194 -73.78273 2435 ft 143 kts 218°
2026-05-06 04:48 40.88373 -73.78949 2262 ft 135 kts 219°
2026-05-06 04:48 40.87601 -73.79585 2089 ft 128 kts 220°
2026-05-06 04:48 40.86869 -73.80190 1945 ft 120 kts 219°
2026-05-06 04:49 40.86173 -73.80764 1771 ft 115 kts 220°
2026-05-06 04:49 40.85503 -73.81318 1617 ft 115 kts 220°
2026-05-06 04:49 40.84796 -73.81905 1448 ft 123 kts 219°
2026-05-06 04:49 40.84068 -73.82503 1310 ft 123 kts 215°
2026-05-06 04:50 40.83344 -73.83088 1093 ft 122 kts 217°
2026-05-06 04:50 40.82637 -73.83675 975 ft 120 kts 216°
2026-05-06 04:50 40.81911 -73.84275 831 ft 126 kts 215°
2026-05-06 04:50 40.81167 -73.84909 682 ft 128 kts 214°
2026-05-06 04:51 40.80399 -73.85531 519 ft 129 kts 212°
2026-05-06 04:51 40.79644 -73.86174 329 ft 130 kts 213°
2026-05-06 04:51 40.78875 -73.86801 127 ft 129 kts 210°
2026-05-06 04:51 40.78131 -73.87409 14 ft 117 kts 211°
2026-05-06 04:52 40.77592 -73.87854 24 ft 61 kts 212°
2026-05-06 04:52 40.77353 -73.88050 21 ft 34 kts 212°
2026-05-06 04:52 40.77178 -73.88196 22 ft 22 kts 212°
2026-05-06 04:52 40.77086 -73.88235 24 ft 13 kts 161°
2026-05-06 04:53 40.77073 -73.88142 22 ft 13 kts 44°
2026-05-06 04:53 40.77156 -73.88070 21 ft 16 kts 30°
2026-05-06 04:53 40.77261 -73.87984 22 ft 19 kts 32°
2026-05-06 04:53 40.77384 -73.87877 19 ft 23 kts 33°
2026-05-06 04:54 40.77506 -73.87781 20 ft 13 kts 31°
2026-05-06 04:54 40.77538 -73.87692 19 ft 12 kts 112°
2026-05-06 04:54 40.77494 -73.87595 19 ft 12 kts 121°
2026-05-06 04:54 40.77450 -73.87496 19 ft 14 kts 112°
2026-05-06 04:55 40.77432 -73.87353 19 ft 17 kts 91°
2026-05-06 04:55 40.77427 -73.87231 19 ft 11 kts 102°
2026-05-06 04:55 40.77432 -73.87166 19 ft 6 kts 10°
2026-05-06 04:55 40.77469 -73.87176 19 ft 4 kts 354°
2026-05-06 04:56 40.77478 -73.87176 19 ft 0 kts 359°